EHI
0 0 0 0 0 0 0 0 0 0 0 0 0 0 0 1 2 6 17 47 84 98 96 94 90 73 47 26 14 8 6 6 6 5 4 3 4 4 4 4 3 3 3 3 3 3 3 3 3
0 0 0 0 0 0 0 0 0 0 0 0 0 0 1 2 3 10 30 64 90 98 95 94 92 80 57 35 23 14 11 10 10 8 6 5 5 5 5 4 3 3 3 3 3 3 3 3 3
0 0 0 0 0 0 0 0 0 0 0 0 0 1 3 4 8 23 52 80 94 94 94 95 95 88 71 51 35 24 18 16 17 16 12 9 8 7 6 4 3 3 3 3 3 3 3 3 3
0 0 0 0 0 0 0 0 0 0 0 0 1 6 11 13 22 44 67 86 89 84 85 92 95 91 79 61 44 33 27 25 25 24 20 15 11 10 7 4 3 3 3 3 3 3 3 3 3
0 0 0 0 0 0 0 0 0 0 0 0 4 15 24 28 43 59 70 80 82 76 77 84 90 88 79 65 51 43 40 40 38 34 28 22 18 13 8 4 3 3 3 3 3 3 3 3 3
0 0 0 0 0 0 0 0 0 0 0 0 6 21 32 39 49 58 62 67 74 78 75 75 78 80 76 68 59 54 53 53 50 43 35 30 25 17 9 6 4 3 3 3 3 3 3 3 3
0 0 0 0 0 0 0 0 0 0 0 0 5 19 34 40 42 45 48 53 68 78 69 55 55 61 63 60 60 61 58 55 50 42 34 30 25 17 11 8 6 4 3 3 3 3 3 3 3
0 0 0 0 0 0 0 0 0 0 0 0 3 16 33 38 34 35 37 45 62 71 56 35 32 38 39 41 46 51 51 46 39 31 24 21 17 12 9 10 9 6 3 3 3 3 3 3 4
0 0 0 0 0 0 0 0 0 0 0 0 5 17 30 31 28 31 38 50 64 66 47 27 22 22 21 24 29 32 32 29 24 17 14 11 8 6 10 18 20 11 4 3 4 4 4 4 4
0 0 0 0 0 0 0 0 0 0 0 1 7 18 25 25 23 28 42 58 69 64 44 28 24 18 14 19 22 18 15 13 11 9 7 5 4 7 17 31 30 15 5 4 5 5 5 4 4
0 0 0 0 0 0 0 0 0 0 0 1 7 17 23 22 20 25 39 57 64 56 41 35 30 20 18 25 22 15 13 11 10 11 9 6 5 9 22 32 28 16 7 5 6 6 5 4 4
0 0 0 0 0 0 0 0 0 0 0 2 6 14 19 17 16 21 36 51 56 47 40 44 46 39 43 44 31 19 18 19 21 24 19 11 8 10 20 27 23 15 12 12 12 10 8 7 7
0 0 0 0 0 0 0 0 0 0 0 2 6 10 13 11 14 24 38 53 57 47 43 56 68 71 73 67 47 30 26 27 33 36 27 16 14 16 23 27 24 18 18 25 24 20 17 15 14
0 0 0 0 0 0 0 0 0 0 0 1 4 8 11 13 20 33 49 62 66 59 55 68 84 89 87 76 59 44 36 35 40 43 34 23 23 30 35 34 31 24 25 33 35 31 26 22 20
0 0 0 0 0 0 0 0 1 1 1 3 6 11 17 23 32 46 61 72 76 75 73 77 85 89 87 75 62 52 43 41 47 49 43 31 30 40 45 42 38 32 33 39 40 36 31 27 24
0 0 0 0 0 0 0 1 3 4 5 8 14 20 28 36 45 56 67 77 83 86 86 81 78 83 84 74 64 56 51 53 58 60 53 40 36 43 49 47 42 40 40 41 40 38 37 34 29
0 0 0 0 0 0 1 3 5 7 10 17 25 31 37 45 54 64 73 81 87 91 92 84 78 80 80 75 68 63 64 67 69 68 63 53 46 48 51 51 49 45 43 41 38 39 42 39 32
0 0 0 1 1 1 3 6 11 14 19 28 33 38 43 51 60 70 79 86 91 94 94 88 83 82 81 77 72 68 68 71 71 69 66 61 56 55 57 57 53 48 42 39 37 36 36 33 29
0 0 1 2 3 4 7 12 19 26 32 38 39 41 47 55 64 73 78 84 88 90 90 87 83 81 80 77 72 68 66 64 62 58 55 54 55 56 56 53 48 42 36 33 32 30 25 20 17
0 0 1 3 4 5 10 16 24 32 38 40 40 43 48 56 64 68 71 74 78 80 80 79 77 75 74 72 71 69 66 60 49 42 39 40 43 43 41 39 34 29 25 24 24 21 15 9 6
0 0 0 1 2 3 7 13 19 27 32 33 36 43 48 53 55 56 57 60 63 66 67 68 69 69 69 70 71 73 69 55 38 28 24 24 24 24 24 22 19 15 15 15 14 10 6 3 2
0 0 0 0 0 0 3 7 14 22 26 27 33 41 44 45 43 41 42 44 45 47 50 53 57 59 62 67 69 68 59 41 26 17 13 11 10 10 10 10 8 7 7 6 4 2 0 0 0
0 0 0 0 0 0 1 3 12 21 23 24 30 35 35 33 31 30 30 30 28 29 32 36 40 42 46 52 55 49 36 23 15 11 8 6 5 4 4 3 3 2 2 1 0 0 0 0 0
0 0 0 0 0 0 0 4 14 24 23 22 25 26 24 21 20 20 21 20 18 18 20 23 24 25 27 30 31 26 17 11 9 7 5 4 4 3 2 1 1 1 0 0 0 0 0 0 0
0 0 0 0 0 0 1 10 24 34 31 25 21 17 14 13 12 13 14 13 12 13 14 15 14 14 13 12 12 11 9 7 5 4 3 3 2 2 1 0 0 0 0 0 0 0 0 0 0
0 0 0 0 0 0 3 18 37 42 35 27 19 12 9 8 9 8 8 8 8 8 9 8 7 6 5 4 4 4 5 4 3 2 1 1 1 1 0 0 0 0 0 0 0 0 0 0 0
0 0 0 0 0 1 5 19 33 35 28 22 16 10 7 6 6 5 3 3 3 4 4 4 3 3 2 2 1 1 1 1 1 1 0 0 0 0 0 0 0 0 0 0 0 0 0 0 0
0 0 0 0 0 1 4 10 18 21 18 15 12 9 6 4 3 2 1 1 1 1 1 1 1 1 1 1 0 0 0 0 0 0 0 0 0 0 0 0 0 0 0 0 0 0 0 0 0
0 0 0 0 0 0 1 3 8 13 12 10 9 7 4 2 1 0 0 0 0 0 0 0 0 0 0 0 0 0 0 0 0 0 0 0 0 0 0 0 0 0 0 0 0 0 0 0 0
0 0 0 0 0 0 0 1 5 9 11 10 8 6 3 1 0 0 0 0 0 0 0 0 0 0 0 0 0 0 0 0 0 0 0 0 0 0 0 0 0 0 0 0 0 0 0 0 0
Wind_Speed
14 17 14 10 10 11 15 5 4 6 2 6 6 7 7 9 9 7 6 12 22 21 19 18 17 17 17 17 16 15 15 14 13 13 12 11 11 11 11 11 10 10 10 10 10 10 10 9 8
13 16 12 9 11 14 9 3 4 5 3 5 6 4 7 12 12 11 9 16 22 20 17 16 17 17 17 17 16 16 16 15 14 13 12 12 11 11 10 10 10 10 9 9 9 9 9 8 7
14 16 10 10 16 17 9 3 8 9 2 2 4 3 7 10 11 11 13 19 20 17 16 17 17 17 17 17 17 16 16 15 14 14 13 12 11 10 10 10 10 9 9 8 8 8 7 7 6
10 10 10 12 19 19 10 5 5 14 5 2 3 5 10 9 9 14 17 19 20 18 17 17 17 17 17 17 17 17 16 15 14 13 13 12 11 10 10 10 9 9 8 8 7 7 6 5 4
10 9 13 17 22 20 9 8 9 13 9 3 2 6 11 11 15 18 17 19 18 18 17 17 16 17 17 17 16 16 16 15 14 13 12 11 10 10 9 9 9 8 8 7 6 6 5 4 2
9 10 15 18 21 21 15 11 13 13 8 5 1 6 11 12 14 17 18 18 18 19 18 16 16 17 16 16 16 15 15 14 13 12 12 11 10 9 9 9 8 8 7 6 6 5 4 3 1
12 13 18 21 21 20 17 12 11 10 9 5 0 3 9 12 12 16 17 17 18 20 19 16 15 15 16 15 15 15 14 14 13 12 11 11 10 10 10 9 8 8 7 6 5 4 3 3 3
12 14 20 21 22 21 16 11 11 10 9 3 2 4 9 11 11 15 16 16 17 19 18 17 16 14 14 13 15 15 15 14 13 13 12 11 10 10 10 10 8 8 7 6 5 5 4 5 5
16 15 18 20 20 18 15 11 10 10 9 6 2 8 14 14 14 15 15 16 15 17 16 17 17 14 14 14 14 14 14 13 13 11 11 11 8 9 9 10 11 9 8 7 7 7 7 7 9
14 15 20 19 20 17 14 11 10 11 12 8 6 13 19 18 16 16 16 17 17 17 17 16 17 15 14 12 11 9 10 10 9 8 9 7 6 5 8 13 12 11 9 8 9 9 9 9 6
16 18 18 19 19 17 15 13 8 11 11 11 8 14 17 17 16 16 17 17 16 16 15 16 16 13 13 10 10 7 5 7 7 8 8 6 4 4 6 6 7 7 9 7 7 8 7 7 5
17 17 17 18 17 14 14 14 12 12 11 8 4 8 11 12 15 15 15 15 15 15 15 15 16 12 10 11 9 7 6 6 6 7 8 5 3 3 4 4 6 6 5 5 5 5 6 4 2
16 16 16 16 15 14 13 14 14 14 10 7 4 6 9 11 12 12 13 14 15 14 13 13 13 10 7 7 6 7 6 7 7 6 6 5 4 3 2 2 2 2 2 3 2 2 1 1 2
14 13 15 15 15 14 15 15 15 15 13 10 8 9 12 14 12 11 12 13 14 13 12 12 13 12 9 6 3 4 5 4 4 5 6 5 2 2 1 1 1 1 1 1 1 1 1 1 2
13 15 15 15 15 15 14 17 18 16 14 11 9 8 9 9 10 11 12 11 12 12 10 10 11 11 9 8 6 5 4 5 4 4 5 4 2 2 2 1 1 0 1 1 2 2 2 2 2
13 14 17 18 18 17 16 16 15 15 13 12 9 7 7 5 7 9 10 10 11 12 10 9 10 12 8 6 4 3 3 4 3 4 4 4 2 3 2 1 1 1 1 1 1 1 1 2 2
15 16 18 18 18 15 16 14 10 9 12 8 7 6 7 8 6 9 8 9 10 10 10 7 7 10 9 7 4 2 3 4 3 3 3 4 3 3 2 1 2 2 2 1 1 1 1 1 1
12 14 16 15 12 14 14 9 5 4 6 7 5 5 6 9 8 9 9 8 9 9 8 6 6 8 8 6 4 2 3 4 4 4 4 5 3 3 3 2 3 2 2 2 2 2 2 2 2
16 15 13 8 7 10 10 6 2 4 3 5 6 7 7 9 11 10 10 8 8 8 7 5 5 6 5 5 5 4 3 4 4 4 6 6 6 5 5 3 4 3 3 3 2 2 2 2 2
13 14 10 3 3 5 7 6 4 6 7 7 8 8 9 11 12 11 10 9 8 7 5 4 4 4 4 3 3 3 4 5 5 6 8 8 7 6 5 5 3 3 3 3 3 2 1 1 2
13 13 10 7 4 6 6 6 6 7 8 7 9 9 11 12 12 10 10 10 9 8 6 4 3 3 3 4 4 5 5 5 5 6 6 9 9 8 7 7 5 5 5 4 5 4 2 1 2
12 11 10 10 8 8 12 9 10 10 9 8 9 10 12 12 12 11 10 10 10 9 8 9 8 5 4 4 5 7 6 6 6 6 7 9 9 9 8 8 7 7 6 6 6 6 4 3 2
12 11 10 12 11 11 11 9 8 11 10 9 9 10 12 12 11 11 11 10 10 10 9 9 10 9 8 7 6 8 8 8 7 8 10 9 8 9 9 8 8 7 7 8 8 7 7 5 5
10 12 11 12 11 14 13 11 8 10 11 11 10 11 11 11 11 11 10 11 11 11 10 10 12 12 12 12 11 11 11 10 11 10 8 7 7 7 9 9 8 8 7 7 7 7 8 6 6
11 11 8 10 12 14 13 10 4 10 13 14 14 11 11 10 10 10 11 12 11 12 12 12 13 13 13 14 14 13 12 12 11 10 9 8 7 7 8 8 7 6 6 6 6 6 6 6 6
11 13 11 8 7 8 8 4 8 13 15 15 15 13 11 11 11 12 11 11 11 12 12 13 14 14 13 14 13 12 12 10 9 10 9 9 7 7 7 7 7 7 7 7 6 6 6 5 5
12 13 14 11 10 9 2 6 8 14 16 16 16 14 12 12 12 12 12 12 12 12 12 13 13 13 13 13 14 13 12 12 12 11 10 8 6 7 7 7 7 7 7 6 5 5 5 5 5
12 10 7 8 7 8 5 7 9 17 17 16 16 14 13 12 12 12 11 11 11 12 12 13 14 14 13 12 11 12 12 11 11 10 10 8 7 6 6 6 6 6 6 6 5 4 5 5 4
10 10 8 8 7 6 4 2 3 14 16 16 15 14 14 13 12 11 11 11 11 11 12 12 13 13 13 13 12 12 10 10 10 9 8 7 6 6 6 6 5 6 6 5 5 5 5 6 5
9 9 7 7 7 6 3 2 5 13 15 16 16 15 14 13 12 12 12 11 11 11 11 11 11 12 12 11 11 10 9 9 9 8 7 6 6 6 6 6 6 6 7 6 6 6 6 5 5
Wind_Direction
299 288 282 279 262 249 257 250 245 245 213 83 62 65 83 72 80 117 169 126 117 124 129 132 135 140 142 142 140 139 138 137 133 129 124 118 112 107 104 101 99 99 99 100 99 97 93 90 86
295 291 288 267 262 262 268 324 292 265 78 99 109 115 99 80 97 122 130 116 119 126 135 133 135 139 142 142 141 141 142 141 138 134 130 124 118 114 110 107 105 103 103 102 101 98 96 92 88
277 272 275 266 256 262 272 323 305 295 125 142 118 114 84 95 101 113 120 122 123 129 130 128 136 137 140 142 143 144 145 144 141 138 134 129 123 119 115 113 111 108 106 105 103 102 98 92 86
269 254 247 254 259 263 257 164 267 291 271 196 120 97 85 87 102 119 129 129 128 133 130 132 135 136 139 142 144 145 146 145 143 140 136 131 127 123 120 118 117 115 113 110 107 105 102 97 89
246 252 250 251 258 263 251 179 193 252 255 246 158 104 93 84 105 121 134 132 137 137 130 134 134 135 138 142 144 145 145 144 142 139 136 133 130 126 124 124 123 122 121 117 113 110 107 103 94
244 237 246 251 256 259 251 214 220 234 251 261 198 116 110 117 120 135 138 141 141 135 131 132 134 135 137 140 142 142 142 141 139 138 137 134 132 131 131 131 130 130 128 127 126 124 122 120 128
246 245 246 252 259 262 258 239 226 243 254 243 309 114 115 119 135 141 142 145 140 134 133 141 140 138 137 138 139 139 139 139 138 139 139 139 139 140 141 139 138 138 137 140 144 150 157 175 214
244 255 257 255 259 265 269 266 258 244 257 265 202 144 126 127 153 145 147 144 141 137 141 149 148 145 145 143 141 140 140 140 141 144 148 149 149 153 154 152 148 150 154 160 168 180 195 211 227
242 248 253 255 259 265 267 254 252 271 252 247 200 114 132 154 164 153 152 146 145 141 146 154 151 154 155 151 145 144 144 143 146 153 159 162 175 173 172 165 154 164 171 179 189 202 214 225 230
233 243 251 258 267 277 278 262 225 243 250 232 188 132 145 162 168 165 160 154 150 150 155 155 152 160 162 153 145 156 161 156 173 167 173 194 205 181 169 150 164 174 185 194 207 217 225 233 232
233 244 260 266 272 281 285 281 245 238 242 243 210 156 157 164 171 172 164 158 155 155 157 154 154 163 160 143 155 164 165 159 191 172 183 204 206 171 146 161 167 183 194 203 206 217 228 229 230
240 247 258 268 280 288 283 284 272 256 249 256 237 151 151 174 177 175 163 156 155 157 158 153 153 160 153 148 158 160 163 166 184 171 191 191 198 205 173 174 173 185 195 199 190 220 223 233 263
248 249 256 265 273 280 281 274 271 267 257 254 221 157 171 195 190 170 155 150 160 156 154 147 152 139 126 127 156 166 163 172 176 162 191 184 181 209 189 159 147 198 176 165 196 233 309 344 319
269 266 259 257 256 254 259 262 261 258 256 245 219 193 181 189 180 163 153 154 157 155 151 142 143 133 133 138 158 142 156 158 155 160 172 181 188 165 138 145 132 302 27 74 65 16 18 347 339
267 271 268 257 250 245 246 248 247 247 243 238 225 207 186 183 166 153 148 147 147 146 142 135 139 140 144 153 174 158 157 154 149 144 149 159 184 139 118 75 88 352 28 41 35 7 7 332 332
261 254 255 247 234 230 232 244 238 229 226 227 211 201 171 141 136 129 135 137 136 141 133 142 151 147 149 156 171 149 154 138 136 133 141 154 156 118 112 89 78 49 35 43 37 354 353 0 356
245 242 246 243 219 212 216 238 241 221 208 204 187 181 155 128 113 101 115 121 119 122 129 141 137 142 153 154 156 157 123 108 113 109 115 124 118 110 110 74 61 51 43 29 334 57 35 354 334
256 248 242 239 202 199 206 218 233 198 181 166 157 152 135 115 105 92 91 86 96 106 117 129 131 132 141 146 153 153 120 101 90 81 74 82 84 80 90 82 55 43 47 36 22 33 27 12 344
281 288 279 256 173 185 197 190 146 79 64 90 105 113 106 95 81 77 80 71 81 90 100 110 129 135 144 153 164 164 142 116 94 78 70 66 58 60 66 67 60 47 50 44 34 34 16 19 358
274 278 277 263 159 193 185 166 105 84 74 59 60 72 91 88 78 68 74 76 68 73 88 110 130 133 142 149 148 139 122 105 92 80 67 63 61 55 65 60 58 55 58 49 34 28 20 33 22
260 263 262 260 235 208 199 203 165 122 99 85 75 68 73 77 74 65 63 62 62 60 55 64 76 104 127 131 134 130 115 109 97 82 70 55 53 51 53 59 57 56 57 50 41 22 22 49 42
253 251 255 260 244 223 208 216 191 156 128 107 89 79 75 72 69 63 58 56 51 51 48 45 47 57 70 104 138 137 128 116 96 88 81 69 58 55 52 57 58 58 56 51 44 35 27 34 35
257 261 243 245 247 254 231 230 197 165 151 130 105 91 79 75 72 66 58 53 51 48 50 52 51 49 52 60 84 100 97 97 95 90 84 76 65 59 55 55 59 59 59 58 54 47 43 42 39
254 258 250 242 245 244 240 242 198 174 159 133 111 97 85 79 76 71 64 57 53 51 51 55 59 54 52 59 69 87 99 102 99 94 90 80 71 62 60 60 61 60 59 58 57 53 52 48 46
236 244 237 227 231 240 229 228 125 138 135 134 120 103 92 86 78 72 65 60 55 54 56 59 64 60 59 65 67 73 85 89 91 92 87 83 75 68 62 63 61 59 58 59 59 58 52 45 45
227 241 247 247 252 260 237 178 116 115 116 116 115 111 99 87 77 71 68 66 62 59 60 64 67 66 65 69 71 72 76 82 83 83 87 84 80 75 69 64 61 57 54 55 55 55 48 40 36
227 236 252 266 275 274 246 115 130 126 125 127 122 114 102 90 82 77 72 69 66 64 64 69 73 73 72 74 77 76 78 82 85 84 83 82 83 83 74 68 64 57 50 45 55 62 47 42 35
248 247 254 254 263 268 228 191 177 162 151 140 128 120 109 100 91 84 78 74 72 71 71 71 74 76 75 76 79 83 81 82 84 85 84 84 82 80 79 74 69 64 55 41 39 55 40 39 27
232 242 252 267 266 270 251 225 153 167 152 140 129 122 115 107 99 92 87 82 81 79 77 78 78 80 79 79 79 81 82 84 84 83 84 84 84 81 77 75 72 69 59 46 36 37 43 36 27
243 251 252 267 284 291 296 54 97 137 136 133 125 120 114 108 103 98 94 88 83 81 79 78 80 83 84 84 84 83 83 82 84 84 83 80 76 74 71 65 60 62 57 43 34 28 30 28 21